VKG176 EKCH-LGIR

Flight info

Callsign VKG176
Flight time 3h 2m
Altitude 35000
Route SIMEG Z491 TELMO DCT KEKOV DCT POKEN Z491 VAVUN L996 DENKO L616 DESEN DCT VALPI DCT PARAK DCT RAXAD DCT MAKED UL617 KEA UL607 GIVIS UT514 XAVIS
Aircraft A321/M-SDE2E3FGHIJ1RWXYZ/LB2

Departure

Time 2026-04-25 05:18
Airport Copenhagen Kastrup Airport (EKCH)

Arrival

Time 2026-04-25 08:20
Airport Heraklion International Nikos Kazantzakis Airport (LGIR)
Time Latitude Longitude Altitude Speed Heading
2026-04-25 04:52 55.62868 12.63998 17 ft 0 kts 12°
2026-04-25 05:09 55.62854 12.63993 18 ft 4 kts 12°
2026-04-25 05:09 55.62828 12.63983 18 ft 4 kts 12°
2026-04-25 05:09 55.62806 12.63975 17 ft 3 kts 12°
2026-04-25 05:10 55.62783 12.63960 19 ft 4 kts 50°
2026-04-25 05:10 55.62776 12.63923 21 ft 4 kts 111°
2026-04-25 05:10 55.62787 12.63881 20 ft 4 kts 115°
2026-04-25 05:10 55.62792 12.63861 18 ft 0 kts 115°
2026-04-25 05:13 55.62792 12.63863 18 ft 1 kts 115°
2026-04-25 05:13 55.62787 12.63880 20 ft 2 kts 115°
2026-04-25 05:13 55.62781 12.63905 20 ft 3 kts 116°
2026-04-25 05:13 55.62767 12.63930 19 ft 2 kts 150°
2026-04-25 05:14 55.62741 12.63914 17 ft 6 kts 215°
2026-04-25 05:14 55.62698 12.63868 19 ft 9 kts 208°
2026-04-25 05:14 55.62640 12.63893 17 ft 10 kts 132°
2026-04-25 05:15 55.62538 12.64163 18 ft 16 kts 124°
2026-04-25 05:15 55.62472 12.64334 17 ft 18 kts 124°
2026-04-25 05:15 55.62373 12.64443 17 ft 19 kts 187°
2026-04-25 05:15 55.62238 12.64380 15 ft 22 kts 200°
2026-04-25 05:16 55.62090 12.64255 17 ft 25 kts 205°
2026-04-25 05:16 55.61935 12.64127 17 ft 23 kts 205°
2026-04-25 05:16 55.61806 12.64080 17 ft 17 kts 177°
2026-04-25 05:16 55.61694 12.64091 19 ft 15 kts 177°
2026-04-25 05:17 55.61612 12.64051 21 ft 12 kts 216°
2026-04-25 05:17 55.61510 12.63895 19 ft 44 kts 221°
2026-04-25 05:17 55.61051 12.63180 21 ft 127 kts 220°
2026-04-25 05:17 55.60240 12.61939 58 ft 181 kts 226°
2026-04-25 05:18 55.59186 12.60427 636 ft 197 kts 224°
2026-04-25 05:18 55.58160 12.58865 1615 ft 194 kts 230°
2026-04-25 05:18 55.57103 12.57181 2186 ft 217 kts 231°
2026-04-25 05:18 55.55815 12.55513 2868 ft 242 kts 216°
2026-04-25 05:19 55.54226 12.54304 3753 ft 253 kts 207°
2026-04-25 05:19 55.52534 12.53306 4698 ft 259 kts 205°
2026-04-25 05:19 55.50803 12.52364 5617 ft 261 kts 205°
2026-04-25 05:19 55.49090 12.51424 6512 ft 262 kts 206°
2026-04-25 05:20 55.47326 12.50425 7363 ft 264 kts 206°
2026-04-25 05:20 55.45465 12.49937 8171 ft 281 kts 184°
2026-04-25 05:20 55.43536 12.50942 8978 ft 300 kts 153°
2026-04-25 05:20 55.42002 12.53494 9817 ft 311 kts 121°
2026-04-25 05:21 55.41194 12.57034 10604 ft 314 kts 104°
2026-04-25 05:21 55.40573 12.60734 11377 ft 321 kts 104°
2026-04-25 05:21 55.39926 12.64655 11699 ft 345 kts 104°
2026-04-25 05:21 55.39240 12.68800 11999 ft 369 kts 104°
2026-04-25 05:22 55.38498 12.73220 12542 ft 382 kts 104°
2026-04-25 05:22 55.37727 12.77734 13327 ft 389 kts 105°
2026-04-25 05:22 55.36933 12.82326 14098 ft 394 kts 105°
2026-04-25 05:22 55.36128 12.86952 14860 ft 398 kts 105°
2026-04-25 05:23 55.35313 12.91624 15611 ft 401 kts 105°
2026-04-25 05:23 55.34491 12.96330 16300 ft 404 kts 105°
2026-04-25 05:23 55.33667 13.01055 16848 ft 406 kts 105°
2026-04-25 05:23 55.32841 13.05811 17403 ft 408 kts 105°
2026-04-25 05:24 55.32009 13.10592 17955 ft 410 kts 105°
2026-04-25 05:24 55.31171 13.15390 18440 ft 412 kts 105°
2026-04-25 05:24 55.30323 13.20221 18911 ft 415 kts 105°
2026-04-25 05:24 55.29467 13.25063 19376 ft 417 kts 105°
2026-04-25 05:25 55.28602 13.29931 19835 ft 419 kts 105°
2026-04-25 05:25 55.27732 13.34814 20292 ft 421 kts 105°
2026-04-25 05:25 55.26852 13.39735 20723 ft 424 kts 105°
2026-04-25 05:25 55.25966 13.44694 21151 ft 427 kts 105°
2026-04-25 05:26 55.25010 13.49652 21585 ft 430 kts 111°
2026-04-25 05:26 55.23695 13.54301 22002 ft 433 kts 118°
2026-04-25 05:26 55.22232 13.58938 22424 ft 436 kts 118°
2026-04-25 05:26 55.20765 13.63589 22840 ft 438 kts 118°
2026-04-25 05:27 55.19287 13.68268 23260 ft 440 kts 118°
2026-04-25 05:27 55.17796 13.72977 23621 ft 443 kts 118°
2026-04-25 05:27 55.16300 13.77697 23956 ft 445 kts 118°
2026-04-25 05:27 55.14798 13.82440 24288 ft 447 kts 118°
2026-04-25 05:28 55.13286 13.87203 24618 ft 450 kts 119°
2026-04-25 05:28 55.11755 13.92011 24881 ft 454 kts 119°
2026-04-25 05:28 55.10218 13.96844 25179 ft 457 kts 119°
2026-04-25 05:28 55.08669 14.01701 25497 ft 459 kts 119°
2026-04-25 05:29 55.07108 14.06574 25822 ft 461 kts 119°
2026-04-25 05:29 55.05534 14.11464 26136 ft 463 kts 119°
2026-04-25 05:29 55.03950 14.16369 26444 ft 465 kts 119°
2026-04-25 05:29 55.02360 14.21296 26752 ft 467 kts 120°
2026-04-25 05:30 55.00758 14.26249 27052 ft 469 kts 120°
2026-04-25 05:30 54.99147 14.31209 27368 ft 472 kts 120°
2026-04-25 05:30 54.97507 14.36167 27664 ft 474 kts 123°
2026-04-25 05:30 54.95553 14.40783 27930 ft 474 kts 133°
2026-04-25 05:31 54.93214 14.44827 28209 ft 474 kts 143°
2026-04-25 05:31 54.90574 14.48192 28476 ft 471 kts 153°
2026-04-25 05:31 54.87722 14.50976 28763 ft 470 kts 156°
2026-04-25 05:31 54.84843 14.53695 29030 ft 472 kts 156°
2026-04-25 05:32 54.81925 14.56320 29312 ft 471 kts 161°
2026-04-25 05:32 54.78881 14.58359 29588 ft 470 kts 166°
2026-04-25 05:32 54.75799 14.60269 29857 ft 471 kts 166°
2026-04-25 05:32 54.72704 14.62168 30091 ft 473 kts 166°
2026-04-25 05:33 54.69636 14.64043 30314 ft 474 kts 166°
2026-04-25 05:33 54.66518 14.65947 30551 ft 476 kts 166°
2026-04-25 05:33 54.63396 14.67855 30778 ft 477 kts 166°
2026-04-25 05:33 54.60263 14.69767 30974 ft 478 kts 166°
2026-04-25 05:34 54.57118 14.71686 31197 ft 480 kts 166°
2026-04-25 05:34 54.53969 14.73609 31469 ft 480 kts 166°
2026-04-25 05:34 54.50822 14.75531 31799 ft 479 kts 166°
2026-04-25 05:34 54.47684 14.77444 32103 ft 478 kts 166°
2026-04-25 05:35 54.44550 14.79352 32416 ft 477 kts 166°
2026-04-25 05:35 54.41426 14.81248 32720 ft 476 kts 166°
2026-04-25 05:35 54.38305 14.83141 33026 ft 475 kts 166°
2026-04-25 05:35 54.35186 14.85031 33326 ft 475 kts 166°
2026-04-25 05:36 54.32078 14.86906 33610 ft 473 kts 166°
2026-04-25 05:36 54.28977 14.88770 33935 ft 472 kts 166°
2026-04-25 05:36 54.25880 14.90619 34178 ft 470 kts 166°
2026-04-25 05:36 54.22780 14.92424 34407 ft 470 kts 167°
2026-04-25 05:37 54.19684 14.94185 34614 ft 469 kts 167°
2026-04-25 05:37 54.16578 14.95929 34811 ft 469 kts 167°
2026-04-25 05:37 54.13469 14.97665 34898 ft 472 kts 167°
2026-04-25 05:38 54.07157 15.01217 34925 ft 482 kts 167°
2026-04-25 05:38 54.00771 15.04752 34922 ft 486 kts 167°
2026-04-25 05:39 53.94322 15.08245 34926 ft 487 kts 167°
2026-04-25 05:39 53.87866 15.11728 34936 ft 487 kts 167°
2026-04-25 05:40 53.81407 15.15215 34937 ft 487 kts 167°
2026-04-25 05:40 53.74955 15.18695 34937 ft 486 kts 166°
2026-04-25 05:41 53.68515 15.22151 34953 ft 485 kts 167°
2026-04-25 05:41 53.62072 15.25573 34951 ft 485 kts 167°
2026-04-25 05:42 53.55634 15.28995 34963 ft 485 kts 167°
2026-04-25 05:42 53.49202 15.32419 34930 ft 484 kts 166°
2026-04-25 05:43 53.42972 15.36831 34956 ft 488 kts 158°
2026-04-25 05:43 53.36808 15.41580 34967 ft 487 kts 159°
2026-04-25 05:44 53.30637 15.46299 34978 ft 487 kts 159°
2026-04-25 05:44 53.24472 15.51003 34978 ft 487 kts 159°
2026-04-25 05:45 53.18315 15.55682 34969 ft 486 kts 159°
2026-04-25 05:45 53.12154 15.60348 34970 ft 486 kts 159°
2026-04-25 05:46 53.05994 15.65003 34974 ft 486 kts 159°
2026-04-25 05:46 52.99836 15.69655 34985 ft 486 kts 159°
2026-04-25 05:47 52.93673 15.74286 34967 ft 486 kts 159°
2026-04-25 05:47 52.87510 15.78906 34980 ft 486 kts 159°
2026-04-25 05:48 52.81389 15.83472 34976 ft 486 kts 159°
2026-04-25 05:48 52.75192 15.87918 34979 ft 485 kts 160°
2026-04-25 05:49 52.68966 15.92209 34980 ft 485 kts 161°
2026-04-25 05:49 52.62728 15.96504 34951 ft 486 kts 162°
2026-04-25 05:50 52.56484 16.00835 34953 ft 488 kts 162°
2026-04-25 05:50 52.50222 16.05196 34957 ft 489 kts 162°
2026-04-25 05:51 52.45006 16.08817 34960 ft 490 kts 162°
2026-04-25 05:51 52.38718 16.13142 34979 ft 490 kts 162°
2026-04-25 05:52 52.32419 16.17458 34983 ft 491 kts 161°
2026-04-25 05:52 52.26125 16.21770 34980 ft 491 kts 161°
2026-04-25 05:53 52.19823 16.26084 34983 ft 491 kts 162°
2026-04-25 05:53 52.13524 16.30374 34982 ft 490 kts 162°
2026-04-25 05:54 52.07218 16.34655 34947 ft 492 kts 163°
2026-04-25 05:54 51.97690 16.41089 34969 ft 496 kts 163°
2026-04-25 05:55 51.91314 16.45392 34967 ft 497 kts 163°
2026-04-25 05:55 51.84915 16.49691 34986 ft 498 kts 163°
2026-04-25 05:56 51.78507 16.53977 34964 ft 499 kts 164°
2026-04-25 05:56 51.72113 16.58240 34970 ft 500 kts 164°
2026-04-25 05:57 51.65680 16.62530 34984 ft 501 kts 164°
2026-04-25 05:57 51.59229 16.66807 34989 ft 501 kts 164°
2026-04-25 05:58 51.52778 16.71069 34973 ft 501 kts 164°
2026-04-25 05:58 51.46322 16.75323 34993 ft 501 kts 164°
2026-04-25 05:59 51.39875 16.79555 35002 ft 501 kts 164°
2026-04-25 05:59 51.33417 16.83777 35010 ft 501 kts 164°
2026-04-25 06:00 51.26969 16.87995 34982 ft 500 kts 164°
2026-04-25 06:00 51.20527 16.92186 35007 ft 500 kts 164°
2026-04-25 06:01 51.14089 16.96360 35009 ft 499 kts 164°
2026-04-25 06:01 51.07655 17.00531 35012 ft 499 kts 164°
2026-04-25 06:02 51.01222 17.04693 34977 ft 499 kts 163°
2026-04-25 06:02 50.94791 17.08829 34991 ft 498 kts 164°
2026-04-25 06:03 50.88413 17.12927 35006 ft 497 kts 164°
2026-04-25 06:03 50.81993 17.17034 35018 ft 497 kts 164°
2026-04-25 06:04 50.75571 17.21126 34985 ft 498 kts 163°
2026-04-25 06:04 50.69143 17.25216 35004 ft 498 kts 163°
2026-04-25 06:05 50.62711 17.29298 35007 ft 498 kts 163°
2026-04-25 06:05 50.56277 17.33367 35012 ft 498 kts 163°
2026-04-25 06:06 50.49843 17.37429 34988 ft 498 kts 163°
2026-04-25 06:06 50.43402 17.41482 35005 ft 499 kts 163°
2026-04-25 06:07 50.36958 17.45510 35011 ft 499 kts 163°
2026-04-25 06:07 50.30494 17.49513 35017 ft 500 kts 163°
2026-04-25 06:08 50.23929 17.52782 34990 ft 492 kts 173°
2026-04-25 06:08 50.17300 17.55143 35016 ft 492 kts 173°
2026-04-25 06:09 50.10622 17.57521 35032 ft 492 kts 173°
2026-04-25 06:09 50.03955 17.59892 35042 ft 491 kts 173°
2026-04-25 06:10 49.97291 17.62247 35019 ft 491 kts 173°
2026-04-25 06:10 49.90627 17.64591 35029 ft 491 kts 173°
2026-04-25 06:11 49.83970 17.66938 35035 ft 491 kts 173°
2026-04-25 06:11 49.77311 17.69273 35038 ft 490 kts 173°
2026-04-25 06:12 49.70653 17.71598 35041 ft 490 kts 173°
2026-04-25 06:12 49.64004 17.73915 35048 ft 490 kts 173°
2026-04-25 06:13 49.57343 17.76206 35049 ft 490 kts 173°
2026-04-25 06:14 49.47362 17.79653 35035 ft 490 kts 173°
2026-04-25 06:14 49.40745 17.81941 35052 ft 490 kts 173°
2026-04-25 06:15 49.34078 17.84241 35068 ft 490 kts 173°
2026-04-25 06:15 49.27422 17.86522 35068 ft 490 kts 173°
2026-04-25 06:16 49.20759 17.88806 35054 ft 490 kts 173°
2026-04-25 06:16 49.14115 17.91077 35066 ft 490 kts 173°
2026-04-25 06:17 49.07458 17.93336 35074 ft 490 kts 173°
2026-04-25 06:17 49.00891 17.96299 35068 ft 499 kts 159°
2026-04-25 06:18 48.94711 18.01188 35044 ft 501 kts 156°
2026-04-25 06:18 48.88532 18.06102 35045 ft 501 kts 156°
2026-04-25 06:19 48.82386 18.10960 35058 ft 502 kts 156°
2026-04-25 06:19 48.76194 18.15846 35054 ft 502 kts 156°
2026-04-25 06:20 48.70001 18.20728 35045 ft 502 kts 156°
2026-04-25 06:20 48.63789 18.25607 35044 ft 503 kts 156°
2026-04-25 06:21 48.57576 18.30466 35042 ft 503 kts 156°
2026-04-25 06:21 48.51365 18.35308 35036 ft 503 kts 156°
2026-04-25 06:22 48.45150 18.40149 35028 ft 502 kts 156°
2026-04-25 06:22 48.38937 18.44976 35038 ft 502 kts 156°
2026-04-25 06:23 48.32729 18.49785 35039 ft 502 kts 156°
2026-04-25 06:23 48.26526 18.54571 35041 ft 502 kts 156°
2026-04-25 06:24 48.20313 18.59345 35025 ft 501 kts 156°
2026-04-25 06:24 48.14111 18.64105 35042 ft 501 kts 156°
2026-04-25 06:25 48.07910 18.68856 35053 ft 500 kts 156°
2026-04-25 06:25 48.01707 18.73590 35049 ft 500 kts 156°
2026-04-25 06:26 47.95545 18.78274 35033 ft 500 kts 156°
2026-04-25 06:26 47.89308 18.83010 35038 ft 500 kts 156°
2026-04-25 06:27 47.83150 18.87680 35044 ft 500 kts 156°
2026-04-25 06:27 47.76956 18.92360 35044 ft 500 kts 156°
2026-04-25 06:28 47.70744 18.97036 35019 ft 500 kts 156°
2026-04-25 06:28 47.64545 19.01694 35029 ft 499 kts 156°
2026-04-25 06:29 47.58346 19.06337 35036 ft 499 kts 156°
2026-04-25 06:29 47.52148 19.10965 35037 ft 499 kts 156°
2026-04-25 06:30 47.45954 19.15583 35036 ft 499 kts 156°
2026-04-25 06:30 47.39759 19.20184 35041 ft 498 kts 156°
2026-04-25 06:31 47.33582 19.24763 35051 ft 497 kts 156°
2026-04-25 06:31 47.27405 19.29334 35038 ft 497 kts 156°
2026-04-25 06:32 47.21232 19.33887 35043 ft 496 kts 156°
2026-04-25 06:32 47.15053 19.38431 35036 ft 497 kts 156°
2026-04-25 06:33 47.08869 19.42971 35029 ft 497 kts 156°
2026-04-25 06:33 47.02676 19.47503 35028 ft 497 kts 156°
2026-04-25 06:34 46.96475 19.52028 35025 ft 497 kts 156°
2026-04-25 06:34 46.90277 19.56533 35027 ft 497 kts 155°
2026-04-25 06:35 46.84080 19.61028 35028 ft 498 kts 155°
2026-04-25 06:35 46.77872 19.65520 35029 ft 498 kts 155°
2026-04-25 06:36 46.71699 19.69970 35003 ft 498 kts 155°
2026-04-25 06:36 46.65486 19.74447 35019 ft 497 kts 155°
2026-04-25 06:37 46.60290 19.78192 35042 ft 497 kts 155°
2026-04-25 06:37 46.54128 19.82609 35044 ft 497 kts 155°
2026-04-25 06:38 46.47913 19.87045 35043 ft 497 kts 155°
2026-04-25 06:38 46.41699 19.91475 35037 ft 497 kts 155°
2026-04-25 06:39 46.35494 19.95895 35037 ft 497 kts 155°
2026-04-25 06:39 46.29289 20.00311 35045 ft 497 kts 155°
2026-04-25 06:40 46.23080 20.04701 35046 ft 497 kts 155°
2026-04-25 06:40 46.16873 20.09058 35044 ft 496 kts 155°
2026-04-25 06:41 46.10580 20.13119 35052 ft 495 kts 159°
2026-04-25 06:41 46.04192 20.16828 35058 ft 495 kts 160°
2026-04-25 06:42 45.97799 20.20491 35055 ft 494 kts 159°
2026-04-25 06:42 45.91472 20.24208 35058 ft 494 kts 159°
2026-04-25 06:43 45.85131 20.27996 35067 ft 494 kts 158°
2026-04-25 06:43 45.78787 20.31776 35071 ft 493 kts 159°
2026-04-25 06:44 45.72436 20.35519 35062 ft 493 kts 159°
2026-04-25 06:44 45.66099 20.39238 35078 ft 492 kts 158°
2026-04-25 06:45 45.59755 20.42947 35079 ft 492 kts 158°
2026-04-25 06:45 45.53413 20.46653 35074 ft 492 kts 158°
2026-04-25 06:46 45.47074 20.50354 35070 ft 492 kts 158°
2026-04-25 06:46 45.40747 20.54038 35076 ft 491 kts 158°
2026-04-25 06:47 45.34413 20.57713 35083 ft 491 kts 158°
2026-04-25 06:47 45.28082 20.61383 35070 ft 491 kts 158°
2026-04-25 06:48 45.21756 20.65040 35076 ft 491 kts 158°
2026-04-25 06:48 45.15425 20.68684 35077 ft 491 kts 158°
2026-04-25 06:49 45.09096 20.72316 35081 ft 491 kts 158°
2026-04-25 06:49 45.02773 20.75940 35089 ft 491 kts 158°
2026-04-25 06:50 44.96446 20.79571 35089 ft 490 kts 158°
2026-04-25 06:50 44.90167 20.83165 35091 ft 490 kts 158°
2026-04-25 06:51 44.83845 20.86756 35099 ft 490 kts 158°
2026-04-25 06:51 44.77521 20.90352 35095 ft 490 kts 158°
2026-04-25 06:52 44.71200 20.93945 35097 ft 490 kts 157°
2026-04-25 06:52 44.64877 20.97521 35091 ft 490 kts 157°
2026-04-25 06:53 44.58557 21.01083 35093 ft 489 kts 157°
2026-04-25 06:53 44.52238 21.04640 35099 ft 488 kts 157°
2026-04-25 06:54 44.45938 21.08180 35105 ft 488 kts 157°
2026-04-25 06:54 44.39632 21.11717 35106 ft 488 kts 157°
2026-04-25 06:55 44.33330 21.15233 35100 ft 487 kts 157°
2026-04-25 06:55 44.27043 21.18732 35103 ft 486 kts 157°
2026-04-25 06:56 44.20801 21.22211 35114 ft 486 kts 157°
2026-04-25 06:56 44.14528 21.25704 35115 ft 486 kts 157°
2026-04-25 06:57 44.08251 21.29185 35117 ft 485 kts 157°
2026-04-25 06:57 44.01972 21.32654 35118 ft 485 kts 157°
2026-04-25 06:58 43.95692 21.36105 35123 ft 485 kts 157°
2026-04-25 06:58 43.89413 21.39552 35117 ft 485 kts 157°
2026-04-25 06:59 43.83144 21.43000 35133 ft 485 kts 157°
2026-04-25 06:59 43.76871 21.46439 35126 ft 485 kts 157°
2026-04-25 07:00 43.70594 21.49860 35113 ft 485 kts 157°
2026-04-25 07:00 43.64325 21.53276 35118 ft 484 kts 156°
2026-04-25 07:01 43.58072 21.56682 35126 ft 483 kts 156°
2026-04-25 07:01 43.51818 21.60078 35144 ft 483 kts 156°
2026-04-25 07:02 43.45559 21.63466 35141 ft 483 kts 156°
2026-04-25 07:02 43.39302 21.66845 35143 ft 483 kts 156°
2026-04-25 07:03 43.33092 21.70198 35152 ft 483 kts 156°
2026-04-25 07:03 43.26832 21.73558 35141 ft 483 kts 156°
2026-04-25 07:04 43.20570 21.76911 35145 ft 483 kts 156°
2026-04-25 07:04 43.14322 21.80265 35144 ft 482 kts 156°
2026-04-25 07:05 43.08071 21.83608 35138 ft 482 kts 156°
2026-04-25 07:05 43.01822 21.86948 35133 ft 482 kts 156°
2026-04-25 07:06 42.95572 21.90273 35137 ft 481 kts 156°
2026-04-25 07:06 42.89336 21.93576 35132 ft 481 kts 156°
2026-04-25 07:07 42.83101 21.96874 35143 ft 480 kts 156°
2026-04-25 07:07 42.76870 22.00167 35132 ft 480 kts 156°
2026-04-25 07:08 42.70689 22.03422 35136 ft 479 kts 156°
2026-04-25 07:08 42.64472 22.06695 35128 ft 479 kts 156°
2026-04-25 07:09 42.58260 22.09969 35127 ft 479 kts 156°
2026-04-25 07:09 42.52041 22.13232 35133 ft 479 kts 156°
2026-04-25 07:10 42.45825 22.16463 35125 ft 479 kts 156°
2026-04-25 07:10 42.39608 22.19703 35122 ft 478 kts 156°
2026-04-25 07:11 42.33400 22.22933 35122 ft 478 kts 156°
2026-04-25 07:11 42.26943 22.25203 35121 ft 482 kts 168°
2026-04-25 07:12 42.20341 22.26749 35125 ft 482 kts 168°
2026-04-25 07:12 42.10442 22.29086 35129 ft 481 kts 168°
2026-04-25 07:13 42.03848 22.30643 35129 ft 481 kts 168°
2026-04-25 07:13 41.97257 22.32187 35133 ft 481 kts 168°
2026-04-25 07:14 41.90668 22.33727 35128 ft 480 kts 168°
2026-04-25 07:14 41.84075 22.35257 35129 ft 481 kts 168°
2026-04-25 07:15 41.77479 22.36790 35130 ft 481 kts 167°
2026-04-25 07:15 41.70895 22.38327 35132 ft 480 kts 167°
2026-04-25 07:16 41.64308 22.39857 35131 ft 480 kts 167°
2026-04-25 07:16 41.57770 22.41375 35144 ft 480 kts 167°
2026-04-25 07:17 41.51185 22.42903 35140 ft 480 kts 167°
2026-04-25 07:17 41.44601 22.44413 35132 ft 479 kts 167°
2026-04-25 07:18 41.38034 22.45911 35137 ft 479 kts 167°
2026-04-25 07:18 41.31466 22.47417 35133 ft 478 kts 167°
2026-04-25 07:19 41.24915 22.48929 35123 ft 477 kts 167°
2026-04-25 07:19 41.18369 22.50425 35121 ft 477 kts 167°
2026-04-25 07:20 41.11960 22.52490 35114 ft 471 kts 154°
2026-04-25 07:20 41.06184 22.56465 35102 ft 467 kts 148°
2026-04-25 07:21 41.00455 22.60559 35097 ft 468 kts 148°
2026-04-25 07:21 40.94717 22.64623 35098 ft 468 kts 148°
2026-04-25 07:22 40.89954 22.68001 35105 ft 467 kts 148°
2026-04-25 07:22 40.84225 22.72055 35105 ft 467 kts 148°
2026-04-25 07:23 40.78497 22.76092 35105 ft 467 kts 148°
2026-04-25 07:23 40.72770 22.80132 35112 ft 467 kts 148°
2026-04-25 07:24 40.67040 22.84158 35110 ft 466 kts 148°
2026-04-25 07:24 40.61315 22.88166 35104 ft 466 kts 148°
2026-04-25 07:25 40.55600 22.92165 35100 ft 465 kts 148°
2026-04-25 07:25 40.49888 22.96172 35096 ft 465 kts 148°
2026-04-25 07:26 40.44124 22.99900 35085 ft 468 kts 156°
2026-04-25 07:26 40.38033 23.02927 35084 ft 468 kts 156°
2026-04-25 07:27 40.31943 23.05949 35081 ft 468 kts 156°
2026-04-25 07:27 40.25854 23.08970 35082 ft 468 kts 156°
2026-04-25 07:28 40.19761 23.11992 35100 ft 468 kts 156°
2026-04-25 07:28 40.13672 23.15003 35095 ft 467 kts 156°
2026-04-25 07:29 40.07601 23.18011 35095 ft 467 kts 156°
2026-04-25 07:29 40.01529 23.21008 35089 ft 466 kts 156°
2026-04-25 07:30 39.95463 23.23985 35097 ft 466 kts 156°
2026-04-25 07:30 39.89404 23.26967 35094 ft 465 kts 156°
2026-04-25 07:31 39.83349 23.29939 35088 ft 465 kts 156°
2026-04-25 07:31 39.77293 23.32903 35103 ft 465 kts 156°
2026-04-25 07:32 39.71248 23.35858 35100 ft 464 kts 155°
2026-04-25 07:32 39.65203 23.38802 35097 ft 463 kts 155°
2026-04-25 07:33 39.59167 23.41732 35097 ft 463 kts 155°
2026-04-25 07:33 39.53177 23.44640 35109 ft 462 kts 155°
2026-04-25 07:34 39.47141 23.47560 35099 ft 462 kts 155°
2026-04-25 07:34 39.41116 23.50471 35094 ft 462 kts 155°
2026-04-25 07:35 39.35096 23.53390 35076 ft 462 kts 155°
2026-04-25 07:35 39.29079 23.56303 35075 ft 462 kts 155°
2026-04-25 07:36 39.23053 23.59208 35070 ft 462 kts 155°
2026-04-25 07:36 39.17022 23.62091 35068 ft 462 kts 156°
2026-04-25 07:37 39.10932 23.64775 35063 ft 463 kts 158°
2026-04-25 07:37 39.04797 23.67334 35076 ft 463 kts 158°
2026-04-25 07:38 38.98673 23.69907 35073 ft 463 kts 157°
2026-04-25 07:38 38.92564 23.72517 35071 ft 462 kts 157°
2026-04-25 07:39 38.86457 23.75135 35075 ft 462 kts 157°
2026-04-25 07:39 38.80396 23.77732 35071 ft 462 kts 157°
2026-04-25 07:40 38.74287 23.80337 35066 ft 462 kts 157°
2026-04-25 07:40 38.68174 23.82930 35065 ft 462 kts 157°
2026-04-25 07:41 38.62059 23.85516 35059 ft 463 kts 157°
2026-04-25 07:41 38.55953 23.88097 35072 ft 462 kts 157°
2026-04-25 07:42 38.49843 23.90678 35072 ft 462 kts 157°
2026-04-25 07:42 38.43740 23.93255 35066 ft 462 kts 157°
2026-04-25 07:43 38.37627 23.95825 35068 ft 462 kts 158°
2026-04-25 07:43 38.31565 23.98379 35068 ft 461 kts 159°
2026-04-25 07:44 38.25465 24.00935 35065 ft 461 kts 159°
2026-04-25 07:44 38.19370 24.03482 35061 ft 461 kts 159°
2026-04-25 07:45 38.13271 24.06030 35061 ft 461 kts 159°
2026-04-25 07:45 38.07183 24.08574 35061 ft 460 kts 159°
2026-04-25 07:46 38.01111 24.11111 35060 ft 459 kts 159°
2026-04-25 07:46 37.95085 24.13621 35071 ft 458 kts 159°
2026-04-25 07:47 37.88986 24.16151 35075 ft 458 kts 160°
2026-04-25 07:47 37.82933 24.18660 35069 ft 457 kts 160°
2026-04-25 07:48 37.76929 24.21139 35056 ft 457 kts 160°
2026-04-25 07:48 37.70883 24.23633 35049 ft 457 kts 160°
2026-04-25 07:49 37.64843 24.26128 35050 ft 456 kts 160°
2026-04-25 07:49 37.58813 24.28616 35042 ft 455 kts 160°
2026-04-25 07:50 37.53110 24.31912 35045 ft 451 kts 147°
2026-04-25 07:50 37.47792 24.36102 35041 ft 450 kts 147°
2026-04-25 07:51 37.42480 24.40277 35034 ft 450 kts 147°
2026-04-25 07:51 37.37174 24.44443 35047 ft 449 kts 147°
2026-04-25 07:52 37.31885 24.48592 35033 ft 447 kts 147°
2026-04-25 07:52 37.26596 24.52717 35022 ft 447 kts 147°
2026-04-25 07:53 37.21304 24.56841 35012 ft 448 kts 147°
2026-04-25 07:53 37.16053 24.60934 35020 ft 447 kts 147°
2026-04-25 07:54 37.10757 24.65057 35008 ft 448 kts 147°
2026-04-25 07:54 37.05455 24.69171 35008 ft 446 kts 147°
2026-04-25 07:55 37.02852 24.71187 35000 ft 432 kts 148°
2026-04-25 07:55 37.00344 24.73127 35004 ft 416 kts 147°
2026-04-25 07:55 36.97923 24.74999 34999 ft 403 kts 147°
2026-04-25 07:55 36.95553 24.76831 35000 ft 401 kts 147°
2026-04-25 07:56 36.90806 24.80496 34997 ft 400 kts 147°
2026-04-25 07:56 36.86086 24.84157 34993 ft 398 kts 147°
2026-04-25 07:57 36.81324 24.87845 34944 ft 409 kts 147°
2026-04-25 07:57 36.78901 24.89721 34524 ft 409 kts 148°
2026-04-25 07:57 36.76499 24.91578 34111 ft 404 kts 148°
2026-04-25 07:58 36.74111 24.93418 33566 ft 402 kts 148°
2026-04-25 07:58 36.71735 24.95245 33017 ft 400 kts 148°
2026-04-25 07:58 36.69363 24.97065 32396 ft 401 kts 147°
2026-04-25 07:58 36.66985 24.98890 31729 ft 402 kts 147°
2026-04-25 07:59 36.64595 25.00727 31073 ft 404 kts 147°
2026-04-25 07:59 36.62206 25.02560 30476 ft 404 kts 147°
2026-04-25 07:59 36.59820 25.04388 29912 ft 402 kts 147°
2026-04-25 07:59 36.57480 25.06175 29428 ft 397 kts 147°
2026-04-25 08:00 36.55138 25.07961 28896 ft 393 kts 147°
2026-04-25 08:00 36.52814 25.09736 28360 ft 390 kts 146°
2026-04-25 08:00 36.50481 25.11522 27811 ft 387 kts 146°
2026-04-25 08:00 36.48224 25.13251 27280 ft 385 kts 146°
2026-04-25 08:01 36.45948 25.14989 26746 ft 382 kts 146°
2026-04-25 08:01 36.43686 25.16713 26127 ft 382 kts 146°
2026-04-25 08:01 36.41426 25.18430 25680 ft 378 kts 146°
2026-04-25 08:01 36.39192 25.20123 25245 ft 374 kts 146°
2026-04-25 08:02 36.36986 25.21799 24810 ft 370 kts 146°
2026-04-25 08:02 36.34803 25.23459 24388 ft 366 kts 146°
2026-04-25 08:02 36.32640 25.25104 23963 ft 364 kts 146°
2026-04-25 08:02 36.30478 25.26746 23518 ft 365 kts 146°
2026-04-25 08:03 36.28311 25.28390 23042 ft 365 kts 146°
2026-04-25 08:03 36.26151 25.30024 22601 ft 363 kts 146°
2026-04-25 08:03 36.24001 25.31652 22176 ft 361 kts 146°
2026-04-25 08:03 36.21860 25.33276 21742 ft 360 kts 146°
2026-04-25 08:04 36.19730 25.34892 21291 ft 358 kts 147°
2026-04-25 08:04 36.17609 25.36496 20848 ft 356 kts 147°
2026-04-25 08:04 36.15497 25.38091 20400 ft 354 kts 147°
2026-04-25 08:04 36.13399 25.39672 19954 ft 351 kts 148°
2026-04-25 08:05 36.11220 25.40943 19510 ft 351 kts 159°
2026-04-25 08:05 36.08903 25.41876 19064 ft 350 kts 160°
2026-04-25 08:05 36.06593 25.42801 18647 ft 348 kts 159°
2026-04-25 08:05 36.04299 25.43723 18174 ft 345 kts 159°
2026-04-25 08:06 36.02024 25.44641 17719 ft 342 kts 159°
2026-04-25 08:06 35.99776 25.45547 17295 ft 337 kts 159°
2026-04-25 08:06 35.97557 25.46443 16885 ft 334 kts 159°
2026-04-25 08:06 35.95358 25.47330 16477 ft 331 kts 159°
2026-04-25 08:07 35.93182 25.48205 16073 ft 328 kts 159°
2026-04-25 08:07 35.91022 25.49072 15669 ft 324 kts 159°
2026-04-25 08:07 35.88882 25.49929 15271 ft 323 kts 159°
2026-04-25 08:07 35.86743 25.50788 14878 ft 324 kts 159°
2026-04-25 08:08 35.84603 25.51650 14486 ft 324 kts 159°
2026-04-25 08:08 35.82457 25.52514 14080 ft 325 kts 160°
2026-04-25 08:08 35.80311 25.53372 13665 ft 324 kts 160°
2026-04-25 08:08 35.78171 25.54224 13231 ft 321 kts 160°
2026-04-25 08:09 35.76058 25.55064 12821 ft 317 kts 160°
2026-04-25 08:09 35.73976 25.55896 12426 ft 313 kts 160°
2026-04-25 08:09 35.72612 25.56443 12164 ft 311 kts 160°
2026-04-25 08:09 35.70575 25.57281 11762 ft 307 kts 156°
2026-04-25 08:10 35.68704 25.58493 11376 ft 302 kts 144°
2026-04-25 08:10 35.67061 25.60077 10983 ft 299 kts 140°
2026-04-25 08:10 35.65448 25.61674 10595 ft 296 kts 141°
2026-04-25 08:10 35.63847 25.63251 10220 ft 294 kts 141°
2026-04-25 08:11 35.62278 25.64780 10079 ft 282 kts 144°
2026-04-25 08:11 35.60544 25.65794 9869 ft 275 kts 166°
2026-04-25 08:11 35.58646 25.65869 9738 ft 276 kts 187°
2026-04-25 08:11 35.56846 25.65004 9327 ft 284 kts 211°
2026-04-25 08:12 35.55465 25.63246 8893 ft 292 kts 236°
2026-04-25 08:12 35.54789 25.60883 8419 ft 298 kts 259°
2026-04-25 08:12 35.54445 25.58372 7939 ft 298 kts 253°
2026-04-25 08:12 35.53738 25.56004 7493 ft 295 kts 239°
2026-04-25 08:13 35.52688 25.53873 7165 ft 289 kts 234°
2026-04-25 08:13 35.51656 25.51863 7016 ft 266 kts 234°
2026-04-25 08:13 35.50701 25.50010 6727 ft 248 kts 234°
2026-04-25 08:14 35.48879 25.46530 5876 ft 244 kts 233°
2026-04-25 08:14 35.47942 25.44752 5192 ft 251 kts 234°
2026-04-25 08:14 35.46995 25.42952 4597 ft 250 kts 234°
2026-04-25 08:14 35.46062 25.41191 4150 ft 242 kts 231°
2026-04-25 08:15 35.44917 25.39747 3766 ft 232 kts 213°
2026-04-25 08:15 35.43546 25.38805 3623 ft 222 kts 197°
2026-04-25 08:15 35.42123 25.38335 3564 ft 203 kts 187°
2026-04-25 08:15 35.40771 25.37977 3495 ft 197 kts 187°
2026-04-25 08:16 35.39436 25.37622 3431 ft 196 kts 189°
2026-04-25 08:16 35.38100 25.37268 3334 ft 197 kts 189°
2026-04-25 08:16 35.36778 25.36917 3242 ft 197 kts 189°
2026-04-25 08:16 35.35443 25.36559 3150 ft 196 kts 189°
2026-04-25 08:17 35.34121 25.36128 3061 ft 199 kts 204°
2026-04-25 08:17 35.33135 25.34973 2976 ft 200 kts 242°
2026-04-25 08:17 35.32891 25.33324 2657 ft 198 kts 277°
2026-04-25 08:17 35.33023 25.31661 2362 ft 194 kts 278°
2026-04-25 08:18 35.33140 25.30030 2097 ft 191 kts 279°
2026-04-25 08:18 35.33253 25.28406 1818 ft 189 kts 278°
2026-04-25 08:18 35.33359 25.26856 1545 ft 179 kts 278°
2026-04-25 08:18 35.33462 25.25361 1270 ft 172 kts 276°
2026-04-25 08:19 35.33559 25.23971 1010 ft 156 kts 275°
2026-04-25 08:19 35.33649 25.22699 779 ft 144 kts 274°
2026-04-25 08:19 35.33734 25.21511 534 ft 137 kts 274°
2026-04-25 08:19 35.33804 25.20366 305 ft 132 kts 273°
2026-04-25 08:20 35.33886 25.19271 114 ft 127 kts 274°
2026-04-25 08:20 35.33955 25.18229 96 ft 101 kts 275°
2026-04-25 08:20 35.33988 25.17748 93 ft 45 kts 274°
2026-04-25 08:20 35.34014 25.17401 93 ft 25 kts 277°
2026-04-25 08:21 35.34021 25.17212 90 ft 22 kts 259°
2026-04-25 08:21 35.33975 25.17060 90 ft 10 kts 227°
2026-04-25 08:21 35.33947 25.17073 93 ft 3 kts 127°
2026-04-25 08:21 35.33941 25.17095 94 ft 2 kts 103°
2026-04-25 08:22 35.33938 25.17143 90 ft 11 kts 93°
2026-04-25 08:22 35.33930 25.17250 91 ft 13 kts 97°
2026-04-25 08:22 35.33921 25.17353 91 ft 11 kts 95°
2026-04-25 08:22 35.33917 25.17440 91 ft 10 kts 93°
2026-04-25 08:23 35.33886 25.17497 91 ft 8 kts 167°
2026-04-25 08:23 35.33832 25.17495 92 ft 8 kts 185°
2026-04-25 08:23 35.33782 25.17487 91 ft 7 kts 202°
2026-04-25 08:23 35.33768 25.17442 93 ft 5 kts 269°
2026-04-25 08:24 35.33769 25.17416 93 ft 0 kts 272°